This is the latest recevied weather packets stored in our database for station/object KC8SWY-15. If no packets are shown the sender has not sent any weather packets the latest 1 day(s).
| Time | Temp. | Humidity | Pressure | Rain* | Wind** | Luminosity | Snow |
|---|---|---|---|---|---|---|---|
| 1778005468 | 11.11° C | 42% | 1008.7 hPa | 0 mm | 1.79 m/s, 284° | - | - |
| 1778005168 | 11.11° C | 44% | 1008.6 hPa | 0 mm | 1.79 m/s, 273° | - | - |
| 1778004868 | 11.11° C | 43% | 1008.7 hPa | 0 mm | 2.24 m/s, 287° | - | - |
| 1778004568 | 11.11° C | 43% | 1008.6 hPa | 0 mm | 1.79 m/s, 261° | - | - |
| 1778004268 | 11.11° C | 43% | 1008.6 hPa | 0 mm | 1.79 m/s, 271° | - | - |
| 1778003968 | 11.11° C | 42% | 1008.6 hPa | 0 mm | 2.68 m/s, 286° | - | - |
| 1778003669 | 11.11° C | 45% | 1008.5 hPa | 0 mm | 3.58 m/s, 310° | - | - |
| 1778003369 | 11.67° C | 41% | 1008.5 hPa | 0 mm | 3.13 m/s, 339° | - | - |
| 1778003068 | 11.67° C | 47% | 1008.3 hPa | 0 mm | 2.24 m/s, 340° | - | - |
| 1778002769 | 11.67° C | 45% | 1008.4 hPa | 0 mm | 2.68 m/s, 297° | - | - |
| 1778002469 | 11.67° C | 44% | 1008.5 hPa | 0 mm | 2.68 m/s, 267° | - | - |
| 1778002169 | 11.67° C | 46% | 1008.3 hPa | 0 mm | 3.13 m/s, 322° | - | - |
| 1778001869 | 11.11° C | 47% | 1008.3 hPa | 0 mm | 2.68 m/s, 258° | - | - |
| 1778001569 | 11.11° C | 48% | 1008.4 hPa | 0 mm | 2.24 m/s, 329° | - | - |
| 1778001269 | 10.56° C | 47% | 1008.2 hPa | 0 mm | 2.68 m/s, 322° | - | - |
| 1778000969 | 10.56° C | 49% | 1008.3 hPa | 0 mm | 2.24 m/s, 293° | - | - |
| 1778000669 | 10.56° C | 49% | 1008.3 hPa | 0 mm | 2.68 m/s, 317° | - | - |
| 1778000369 | 10.56° C | 49% | 1008.2 hPa | 0 mm | 3.58 m/s, 333° | - | - |
| 1778000069 | 10° C | 48% | 1008.1 hPa | 0 mm | 3.58 m/s, 275° | - | - |
| 1777999769 | 10.56° C | 49% | 1008 hPa | 0 mm | 2.24 m/s, 282° | - | - |
| 1777999469 | 10.56° C | 55% | 1007.8 hPa | 0 mm | 2.24 m/s, 325° | - | - |
| 1777999169 | 10° C | 53% | 1008 hPa | 0 mm | 1.79 m/s, 348° | - | - |
| 1777998869 | 10° C | 63% | 1007.9 hPa | 0 mm | 0.89 m/s, 279° | - | - |
| 1777998569 | 9.44° C | 64% | 1007.8 hPa | 0 mm | 1.34 m/s, 336° | - | - |
| 1777998269 | 9.44° C | 66% | 1008 hPa | 0 mm | 1.34 m/s, 284° | - | - |
* Rain latest hour (hover to see other rain measurements)
** Current wind speed in m/s (hover to see current wind gust speed)